THORAD DELTA 1 DEB, 8160

Orbit data source: Space-Track

THORAD DELTA 1 DEB, 8160 is space debris in SSO originally from a launch on Fri, 15 Nov 1974 UTC launched from the Air Force Western Test Range (AFWTR). Debris objects in space refer to the collection of defunct objects orbiting the Earth. Examples of debris include non-operational satellites, rocket bodies, and fragments generated from explosions, collisions, or faulty payload assembly.

Loading next visibility...
Identifier
8160, 1974-089AA
Orbit
SSO
Country
Flag of USUS
Related business
Manufacturer
Unknown
Mission
Spacecraft
Bus & Motor
Unknown
Mass
Unknown
Launch date (UTC)
1974-11-15 (51 years ago)
Launch vehicle
Unknown
Launch site
Air Force Western Test Range (AFWTR)
Object type
Payload
Rocket body
Debris
Shape & HBR
Unknown shape, 0.1 m
Radar Cross Section
Small (<0.1 m²)

Expand to show TLE details & history
Last TLE update: 1 day ago

TLE from 1 day ago
0 THORAD DELTA 1 DEB
1 08160U 74089AA  26125.60421828  .00000014  00000-0  31611-3 0  9990
2 08160 101.8201 262.6429 0147162 166.7212 208.6532 12.63539673372482
Epoch: 2026-05-05T14:30Z
TLE epoch observation values (Epoch: 2026-05-05T14:30:04.459Z)
Latitude
14.23773°
Longitude
178.61853°
Altitude
1,511.195 km
Speed
7.064 km/s
True Right ascension
17h 18m 27s
True Declination
14° 09' 50"
Sunlit
Object was in full shadow at epoch
Visualization orbit readout
Latitude
Unknown
Longitude
Unknown
Altitude
Unknown
Speed
Unknown
Apparent Right ascension
Unknown
Apparent Declination
Unknown
Sunlit
N/A
Visualization observer readout
Local Sidereal Time
01:58:19
Azimuth
Unknown
Elevation
Unknown
Doppler factor
Unknown
Orbital elements
Apogee altitude
1,520.452 km
Perigee altitude
1,291.349 km
Semi-major axis
7,784.038 km
Eccentricity
0.01472
Inclination
101.8201°
RAAN
262.6429°
Arg. of periapsis
166.7212°
True anomaly
207.85746°
Mean anomaly
208.6532°
Eccentric anomaly
208.25406°
Mean motion
3.16035 °/min
Orbital period
113.91 mins
BSTAR
0.00031611
Loading maneuver chart data...
Computing Atmospheric mass density...

Documentation

Showing up to 5 results
|